Flag for India Weather past 2 weeks in Gandhinagar, Gujarat, India

Now
82 °F

Clear.


Feels Like: 82 °F
Forecast: 80 / 107 °F
Wind: No wind

Location: Ahmadabad Airport

Current Time: Apr 21, 2015 at 8:13:18 AM

Latest Report: Apr 21, 2015 at 7:10 AM


Visibility: 2 mi

Pressure: 29.77 "Hg

Humidity: 45%

Dew point: 59 °F

Location of GandhinagarLocation

Historic Weather in Gandhinagar — Graph

°F

Gandhinagar temperature yesterday

Maximum temperature yesterday: 113 °F (at 4:40 PM)
Minimum temperature yesterday: 82 °F (at 5:40 AM)
Average temperature yesterday: 97 °F

Past Weeks' High & Low Weather Summary

 TemperatureHumidityPressure
High113 °F (Apr 18, 2:40 PM)83% (Apr 12, 5:40 PM)29.95 "Hg (Apr 12, 5:40 PM)
Low68 °F (Apr 12, 5:40 PM)12% (Apr 20, 4:40 PM)29.56 "Hg (Apr 18, 5:10 PM)
Average91 °F39%29.77 "Hg
* Reported Apr 6 5:40 AM — Apr 21 6:10 AM, Gandhinagar, Weather by CustomWeather, © 2015

Note: Actual official high and low records may vary slightly from our data, if they occured in-between our weather recording intervals... More about our weather records

Advertising

Gandhinagar weather history for previous 24 hours

 ConditionsComfort  
Time TempWeatherWind HumidityBarometerVisibility
6:10 AM
Tue, Apr 21
82 °FClear.No wind45%29.74 "Hg2 mi
5:40 AM82 °FClear.No wind42%29.74 "Hg2 mi
5:10 AM86 °FClear.3 mph38%29.74 "Hg2 mi
4:40 AM86 °FClear.3 mph35%29.74 "Hg2 mi
4:10 AM86 °FClear.3 mph35%29.74 "Hg2 mi
3:40 AM88 °FClear.5 mph33%29.74 "Hg2 mi
3:10 AM88 °FClear.5 mph31%29.74 "Hg2 mi
1:40 AM86 °FClear.2 mph31%29.74 "Hg2 mi
1:10 AM86 °FClear.2 mph33%29.77 "Hg2 mi
11:10 PM
Mon, Apr 20
90 °FClear.No wind31%29.77 "Hg2 mi
10:40 PM91 °FClear.No wind26%29.77 "Hg2 mi
10:10 PM91 °FClear.2 mph30%29.77 "Hg2 mi
9:10 PMN/A3 mphN/AN/A2 mi
8:40 PMN/ANo windN/AN/A2 mi
8:10 PMN/ANo windN/AN/A2 mi
7:40 PMN/ANo windN/AN/A2 mi
7:10 PM102 °FClear.2 mph18%29.71 "Hg2 mi
5:40 PM109 °FClear.6 mph13%29.68 "Hg4 mi
5:10 PM111 °FClear.6 mph12%29.68 "Hg4 mi
4:40 PM113 °FClear.9 mph12%29.68 "Hg4 mi
3:40 PM111 °FClear.7 mph14%29.71 "Hg4 mi
2:40 PM109 °FClear.6 mph17%29.74 "Hg4 mi
2:10 PM108 °FClear.6 mph17%29.74 "Hg4 mi
1:40 PM108 °FClear.9 mph16%29.77 "Hg4 mi
1:10 PM108 °FClear.6 mph17%29.77 "Hg4 mi
12:40 PM106 °FClear.9 mph18%29.80 "Hg4 mi
12:10 PM104 °FClear.9 mph20%29.80 "Hg4 mi
11:40 AM102 °FClear.9 mph20%29.80 "Hg4 mi
11:10 AM100 °FClear.9 mph22%29.83 "Hg4 mi
10:40 AM99 °FClear.7 mph25%29.83 "Hg4 mi
10:10 AM97 °FClear.6 mph27%29.83 "Hg3 mi
9:10 AM91 °FClear.3 mph34%29.83 "Hg2 mi
8:40 AM88 °FClear.5 mph35%29.83 "Hg2 mi
Weather by CustomWeather, © 2015

See weather overviewHow to use our weather pages